Weather History for Mobile Downtown, AL

Change the Weather History Date:

Sunday, March 24, 2013

  Actual Average Record
Temperature  
Mean Temperature 66 °F -  
Max Temperature 81 °F 68 °F 84 °F (2011)
Min Temperature 48 °F 49 °F 39 °F (2002)
Growing Degree Days 16 (Base 50)    
Moisture  
Dew Point 54 °F    
Average Humidity 66    
Maximum Humidity 97    
Minimum Humidity 34    
Precipitation  
Precipitation 0.00 in - - ()
Sea Level Pressure  
Sea Level Pressure 29.70 in    
Wind  
Wind Speed 9 mph (WNW)    
Max Wind Speed 24 mph    
Max Gust Speed 30 mph    
Visibility 9 miles    
Events      
Averages and records for this station are not official NWS values.
T = Trace of Precipitation, MM = Missing Value Source: NWS Daily Summary

Daily Weather History Graph

Daily Weather History Graph

Search for Another Location

Airport:

Trip Planner

Search our weather history database for the weather conditions in past years. The results will help you decide how hot, cold, wet, or windy it might be!

Date:

Astronomy

Mar. 24, 2013 Rise Set
Actual Time 6:50 AM CDT 7:06 PM CDT
Civil Twilight 6:26 AM CDT 7:30 PM CDT
Nautical Twilight 5:58 AM CDT 7:58 PM CDT
Astronomical Twilight 5:30 AM CDT 8:27 PM CDT
Moon 4:42 PM CDT (3/24) 4:51 AM CDT (3/24)
Length of Visible Light 13h 03m
Length of Day
12h 15m
Waxing Gibbous, 92% of the Moon is Illuminated
Mar 24
Waxing Gibbous
Mar 27
Full
Apr 2
Last Quarter
Apr 10
New
Apr 18
First Quarter

Hourly Weather History & Observations

Time (CDT) Temp. Heat Index Dew Point Humidity Pressure Visibility Wind Dir Wind Speed Gust Speed Precip Events Conditions
12:53 AM 71.1 °F - 70.0 °F 96% 29.61 in 6.0 mi Variable 5.8 mph 16.1 mph N/A   Overcast
1:53 AM 71.1 °F - 70.0 °F 96% 29.60 in 6.0 mi SW 8.1 mph 18.4 mph N/A   Overcast
2:53 AM 71.1 °F - 69.1 °F 93% 29.59 in 6.0 mi SW 10.4 mph 20.7 mph N/A   Overcast
3:53 AM 70.0 °F - 69.1 °F 97% 29.59 in 5.0 mi Variable 4.6 mph - N/A   Overcast
4:53 AM 70.0 °F - 68.0 °F 93% 29.59 in 7.0 mi WSW 8.1 mph - 0.00 in   Overcast
5:01 AM 69.8 °F - 68.0 °F 94% 29.58 in 6.0 mi WSW 6.9 mph - N/A   Overcast
5:53 AM 64.9 °F - 62.1 °F 90% 29.62 in 10.0 mi NW 11.5 mph - N/A   Mostly Cloudy
6:53 AM 61.0 °F - 59.0 °F 93% 29.64 in 10.0 mi NW 5.8 mph - N/A   Clear
7:53 AM 63.0 °F - 59.0 °F 87% 29.62 in 10.0 mi Calm Calm - N/A   Clear
8:53 AM 66.0 °F - 59.0 °F 78% 29.67 in 10.0 mi WSW 4.6 mph - N/A   Clear
9:53 AM 70.0 °F - 60.1 °F 71% 29.70 in 10.0 mi WSW 5.8 mph - N/A   Clear
10:53 AM 75.0 °F - 59.0 °F 57% 29.71 in 10.0 mi Variable 4.6 mph - N/A   Clear
11:53 AM 77.0 °F - 57.0 °F 50% 29.69 in 10.0 mi Variable 5.8 mph - N/A   Clear
12:53 PM 78.1 °F - 57.0 °F 48% 29.68 in 10.0 mi West 9.2 mph 18.4 mph N/A   Clear
1:53 PM 80.1 °F 80.2 °F 55.9 °F 43% 29.67 in 10.0 mi West 11.5 mph 20.7 mph N/A   Scattered Clouds
2:53 PM 80.1 °F 80.0 °F 54.0 °F 40% 29.66 in 10.0 mi West 10.4 mph 21.9 mph N/A   Clear
3:53 PM 75.0 °F - 55.0 °F 50% 29.67 in 10.0 mi WNW 15.0 mph 29.9 mph N/A   Clear
4:53 PM 71.1 °F - 52.0 °F 51% 29.70 in 10.0 mi WNW 16.1 mph 27.6 mph N/A   Clear
5:53 PM 66.9 °F - 48.0 °F 51% 29.73 in 10.0 mi WNW 15.0 mph 26.5 mph N/A   Partly Cloudy
6:53 PM 64.0 °F - 41.0 °F 43% 29.76 in 10.0 mi NW 16.1 mph 28.8 mph N/A   Clear
7:53 PM 61.0 °F - 32.0 °F 34% 29.81 in 10.0 mi NW 16.1 mph - N/A   Clear
8:53 PM 57.0 °F - 30.0 °F 36% 29.86 in 10.0 mi NW 19.6 mph 28.8 mph N/A   Clear
9:53 PM 53.1 °F - 34.0 °F 48% 29.91 in 10.0 mi NW 24.2 mph 29.9 mph N/A   Clear
10:53 PM 51.1 °F - 34.0 °F 52% 29.94 in 10.0 mi NNW 15.0 mph 26.5 mph N/A   Clear
11:53 PM 48.0 °F - 33.1 °F 56% 29.96 in 10.0 mi NW 10.4 mph 20.7 mph N/A   Clear